This is the latest recevied weather packets stored in our database for station/object JF2ZGN-13. If no packets are shown the sender has not sent any weather packets the latest 1 day(s).
| Time | Temp. | Humidity | Pressure | Rain* | Wind** | Luminosity | Snow |
|---|---|---|---|---|---|---|---|
| 1778037467 | 11.11° C | 77% | 912.6 hPa | 0 mm | 0 m/s | - | - |
| 1778036867 | 11.11° C | 76% | 912.8 hPa | 0 mm | 0.45 m/s, 235° | - | - |
| 1778036266 | 11.11° C | 75% | 912.8 hPa | 0 mm | 0.89 m/s, 191° | - | - |
| 1778035666 | 11.11° C | 75% | 912.8 hPa | 0 mm | 1.79 m/s, 221° | - | - |
| 1778035066 | 11.11° C | 73% | 912.9 hPa | 0 mm | 1.34 m/s, 226° | - | - |
| 1778034465 | 11.11° C | 72% | 912.9 hPa | 0 mm | 1.79 m/s, 239° | - | - |
| 1778033864 | 11.11° C | 74% | 913 hPa | 0 mm | 0.45 m/s, 235° | - | - |
| 1778033263 | 10.56° C | 75% | 913.1 hPa | 0 mm | 0.45 m/s, 210° | - | - |
| 1778032663 | 10.56° C | 73% | 913.2 hPa | 0 mm | 0.89 m/s, 233° | - | - |
| 1778032062 | 10.56° C | 74% | 913.4 hPa | 0 mm | 0.45 m/s, 233° | - | - |
| 1778031461 | 10.56° C | 76% | 913.5 hPa | 0 mm | 0.89 m/s, 238° | - | - |
| 1778030861 | 10.56° C | 75% | 913.5 hPa | 0 mm | 0.89 m/s, 239° | - | - |
| 1778030262 | 10.56° C | 75% | 913.6 hPa | 0 mm | 1.79 m/s, 207° | - | - |
| 1778029661 | 10.56° C | 74% | 913.5 hPa | 0 mm | 2.24 m/s, 233° | - | - |
| 1778029058 | 10° C | 73% | 913.9 hPa | 0 mm | 3.13 m/s, 190° | - | - |
| 1778028458 | 10° C | 74% | 913.6 hPa | 0 mm | 3.13 m/s, 195° | - | - |
| 1778027858 | 10° C | 74% | 913.6 hPa | 0 mm | 2.68 m/s, 210° | - | - |
| 1778027258 | 10° C | 82% | 913.8 hPa | 0 mm | 1.34 m/s, 228° | - | - |
| 1778026657 | 10.56° C | 82% | 913.8 hPa | 0 mm | 1.34 m/s, 224° | - | - |
| 1778026056 | 10° C | 74% | 913.8 hPa | 0 mm | 2.24 m/s, 194° | - | - |
| 1778025456 | 10° C | 82% | 913.6 hPa | 0 mm | 2.24 m/s, 217° | - | - |
| 1778024855 | 10° C | 81% | 913.8 hPa | 0 mm | 2.24 m/s, 186° | - | - |
| 1778024255 | 10° C | 81% | 913.9 hPa | 0 mm | 2.68 m/s, 200° | - | - |
| 1778023655 | 10° C | 81% | 913.9 hPa | 0 mm | 2.68 m/s, 205° | - | - |
| 1778023054 | 10° C | 81% | 913.6 hPa | 0 mm | 2.68 m/s, 197° | - | - |
* Rain since midnight (hover to see other rain measurements)
** Current wind speed in m/s (hover to see current wind gust speed)